Sunshine Coast Airport Observation History
Time Wind Speed Temp Pressure Rel. Hum Rain
22/08:30am ESE 5-8 kts 23.2°c 1015.9 hPa 73% 1.2mm
22/08:00am SE 5-8 kts 22.7°c 1015.7 hPa 76% 1.2mm
22/07:30am WSW 5-6 kts 21.2°c 1015.3 hPa 82% 1.2mm
22/07:00am WSW 5-7 kts 20.2°c 1015.1 hPa 85% 1.2mm
22/06:30am WSW 4-5 kts 18.3°c 1014.9 hPa 92% 1.2mm
22/06:00am W 5-6 kts 17.6°c 1014.5 hPa 94% 1.2mm
22/05:30am WNW 4-5 kts 16.8°c 1014.1 hPa 94% 1.2mm
22/05:00am WNW 5-6 kts 16.8°c 1013.8 hPa 93% 1.2mm
22/04:30am SW 6-7 kts 17.6°c 1013.3 hPa 93% 1.2mm
22/04:00am SW 8-10 kts 17.8°c 1013.2 hPa 92% 1.2mm
22/03:30am N 4-7 kts 18.5°c 1012.3 hPa 89% 1.2mm
22/03:00am ENE 8-10 kts 18.7°c 1013.1 hPa 90% 1.0mm
22/02:30am WSW 5-6 kts 18.6°c 1014.7 hPa 89% 0.8mm
22/02:00am WSW 4-6 kts 18.6°c 1015.0 hPa 90% 0.8mm
22/01:30am WNW 4-7 kts 18.3°c 1015.2 hPa 91% 0.8mm
22/01:00am WSW 5-7 kts 18.4°c 1015.6 hPa 90% 0.8mm
22/12:30am SW 6-8 kts 18.4°c 1015.8 hPa 90% 0.8mm
22/12:00am WSW 6-7 kts 18.4°c 1015.9 hPa 91% 0.8mm
Time Wind Speed Temp Pressure Rel. Hum Rain
21/11:30pm W 7-8 kts 18.3°c 1016.1 hPa 92% 0.8mm
21/11:00pm WNW 4-5 kts 18.4°c 1015.8 hPa 92% 0.8mm
21/10:30pm NW 5-6 kts 18.2°c 1015.8 hPa 93% 0.8mm
21/10:00pm W 3-4 kts 18.0°c 1015.9 hPa 90% 0.8mm
21/09:30pm W 3-4 kts 18.6°c 1016.1 hPa 90% 0.8mm
21/09:00pm WSW 4-5 kts 18.7°c 1016.4 hPa 89% 0.8mm
21/08:30pm WSW 6-7 kts 19.0°c 1016.3 hPa 88% 0.8mm
21/08:00pm ENE 6-8 kts 20.8°c 1016.0 hPa 76% 0.8mm
21/07:30pm NE 8-10 kts 20.4°c 1015.1 hPa 75% 0.8mm
21/07:00pm NE 10-13 kts 20.0°c 1015.0 hPa 77% 0.8mm
21/06:30pm NE 8-10 kts 20.8°c 1014.8 hPa 72% 0.6mm
21/06:00pm NE 7-10 kts 21.1°c 1014.9 hPa 71% 0.6mm
21/05:30pm E 6-9 kts 21.6°c 1014.8 hPa 65% 0.6mm
21/05:00pm ESE 6-8 kts 21.7°c 1014.7 hPa 65% 0.6mm
21/04:30pm ESE 6-8 kts 21.7°c 1014.9 hPa 65% 0.6mm
21/04:00pm E 7-8 kts 21.9°c 1014.7 hPa 64% 0.6mm
21/03:30pm E 6-8 kts 21.8°c 1014.6 hPa 64% 0.6mm
21/03:00pm E 7-9 kts 22.0°c 1014.6 hPa 65% 0.6mm
21/02:30pm E 7-9 kts 22.0°c 1014.8 hPa 68% 0.6mm
21/02:00pm E 7-9 kts 21.5°c 1014.8 hPa 72% 0.6mm
21/01:30pm E 6-8 kts 21.1°c 1015.1 hPa 74% 0.2mm
21/01:00pm ESE 8-11 kts 21.9°c 1015.3 hPa 66% 0.0mm
21/12:30pm ESE 8-11 kts 23.0°c 1015.6 hPa 60% 0.0mm
21/12:00pm ESE 8-10 kts 22.6°c 1016.1 hPa 60% 0.0mm
21/11:30am ESE 9-12 kts 22.8°c 1016.3 hPa 64% 0.0mm
21/11:00am SE 10-13 kts 23.4°c 1016.5 hPa 63% 0.0mm
21/10:30am SE 9-13 kts 23.3°c 1017.0 hPa 61% 0.0mm
21/10:00am SE 11-15 kts 23.7°c 1017.1 hPa 63% 0.0mm
21/09:30am SE 12-15 kts 23.1°c 1017.3 hPa 61% 0.0mm
21/09:00am SSE 11-15 kts 23.3°c 1017.6 hPa 65% 0.0mm
21/08:30am SSE 10-14 kts 22.3°c 1017.6 hPa 63% 0.0mm
21/08:00am S 9-12 kts 21.7°c 1017.4 hPa 68% 0.0mm
21/07:30am SSW 9-13 kts 20.5°c 1017.3 hPa 70% 0.0mm
21/07:00am SSW 7-10 kts 20.3°c 1016.9 hPa 72% 0.0mm
21/06:30am SW 6-7 kts 19.7°c 1016.6 hPa 75% 0.0mm
21/06:00am SW 8-10 kts 19.6°c 1016.3 hPa 75% 0.0mm
21/05:30am SSW 7-10 kts 19.3°c 1015.8 hPa 76% 0.0mm
21/05:00am S 7-8 kts 19.3°c 1015.4 hPa 75% 0.0mm
21/04:30am SW 6-8 kts 19.2°c 1015.3 hPa 74% 0.0mm
21/04:00am SE 8-10 kts 21.0°c 1015.0 hPa 68% 0.0mm
21/03:30am SE 8-11 kts 21.0°c 1015.0 hPa 68% 0.0mm
21/03:00am SE 9-12 kts 21.3°c 1015.0 hPa 66% 0.0mm
21/02:30am SE 8-12 kts 21.2°c 1015.0 hPa 67% 0.0mm
21/02:00am ESE 9-13 kts 21.4°c 1015.1 hPa 68% 0.0mm
21/01:30am SE 9-13 kts 21.1°c 1015.6 hPa 70% 0.0mm
21/01:00am SE 10-14 kts 21.6°c 1016.1 hPa 67% 0.0mm
21/12:30am SE 11-16 kts 21.7°c 1016.2 hPa 67% 0.0mm
21/12:00am SE 11-17 kts 21.7°c 1016.3 hPa 65% 0.0mm
Time Wind Speed Temp Pressure Rel. Hum Rain
20/11:30pm SE 11-15 kts 21.7°c 1016.4 hPa 68% 0.0mm
20/11:00pm SE 11-15 kts 21.8°c 1016.5 hPa 67% 0.0mm
20/10:30pm SE 11-15 kts 21.8°c 1016.7 hPa 65% 0.0mm
20/10:00pm SE 11-16 kts 21.7°c 1016.7 hPa 66% 0.0mm
20/09:30pm SE 12-18 kts 21.7°c 1016.6 hPa 66% 0.0mm
20/09:00pm SE 13-17 kts 21.7°c 1016.7 hPa 67% 0.0mm
20/08:30pm SE 12-17 kts 21.9°c 1016.6 hPa 68% 0.0mm
20/08:00pm SE 12-17 kts 21.9°c 1016.6 hPa 65% 0.0mm
20/07:30pm SE 13-18 kts 22.0°c 1016.3 hPa 65% 0.0mm
20/07:00pm SE 14-21 kts 22.0°c 1016.1 hPa 63% 0.0mm
20/06:30pm SE 13-18 kts 22.0°c 1015.9 hPa 64% 0.0mm
20/06:00pm SE 15-20 kts 22.1°c 1015.6 hPa 65% 0.0mm
20/05:30pm SE 15-21 kts 22.3°c 1015.4 hPa 68% 0.0mm
20/05:00pm SE 15-21 kts 22.5°c 1015.0 hPa 70% 0.0mm
20/04:30pm SE 14-19 kts 22.7°c 1014.8 hPa 66% 0.0mm
20/04:00pm SE 15-20 kts 23.1°c 1014.7 hPa 67% 0.0mm
20/03:30pm SE 15-21 kts 23.0°c 1014.7 hPa 70% 0.0mm
20/03:00pm SE 16-22 kts 23.4°c 1014.5 hPa 66% 0.0mm
20/02:30pm SE 15-20 kts 23.9°c 1014.9 hPa 64% 0.0mm
20/02:00pm SE 16-21 kts 24.6°c 1015.0 hPa 63% 0.0mm
20/01:30pm SE 15-20 kts 24.1°c 1015.2 hPa 61% 0.0mm
20/01:00pm SE 15-21 kts 24.7°c 1015.6 hPa 59% 0.0mm
20/12:30pm SE 14-19 kts 25.2°c 1015.9 hPa 60% 0.0mm
20/12:00pm SE 13-17 kts 24.1°c 1016.0 hPa 61% 0.0mm
20/11:30am SSE 12-16 kts 23.9°c 1016.4 hPa 63% 0.0mm
20/11:00am SSE 14-18 kts 24.0°c 1016.5 hPa 61% 0.0mm
20/10:30am SSE 12-18 kts 24.2°c 1016.7 hPa 59% 0.0mm
20/10:00am SSE 13-18 kts 23.7°c 1016.9 hPa 59% 0.0mm
20/09:30am SSE 12-15 kts 24.1°c 1016.8 hPa 62% 0.0mm
20/09:00am SSE 11-14 kts 23.0°c 1016.8 hPa 64% 0.0mm
20/08:30am S 10-13 kts 22.2°c 1016.8 hPa 66% 0.0mm
20/08:00am S 10-13 kts 21.3°c 1016.6 hPa 67% 0.0mm
20/07:30am S 10-15 kts 21.3°c 1016.5 hPa 66% 0.0mm
20/07:00am SSW 9-10 kts 21.0°c 1016.1 hPa 67% 0.0mm
20/06:30am SSW 8-11 kts 20.1°c 1015.7 hPa 71% 0.0mm
20/06:00am SW 7-10 kts 18.8°c 1015.4 hPa 77% 0.0mm
20/05:30am SSW 7-9 kts 18.6°c 1015.1 hPa 79% 0.0mm
20/05:00am SW 6-9 kts 18.4°c 1014.5 hPa 79% 0.0mm
20/04:30am SSW 8-11 kts 19.0°c 1014.1 hPa 78% 0.0mm
20/04:00am S 10-14 kts 19.7°c 1013.8 hPa 76% 0.0mm
20/03:30am S 14-19 kts 20.5°c 1013.5 hPa 72% 0.0mm
20/03:00am S 11-15 kts 20.4°c 1013.8 hPa 76% 0.0mm
20/02:30am S 11-17 kts 20.3°c 1013.7 hPa 76% 0.0mm
20/02:00am SSE 15-18 kts 20.6°c 1013.7 hPa 73% 0.0mm
20/01:30am SSE 16-21 kts 20.9°c 1014.0 hPa 73% 0.0mm
20/01:00am SSE 15-21 kts 21.0°c 1014.3 hPa 75% 0.0mm
20/12:30am S 13-18 kts 21.5°c 1014.6 hPa 70% 0.0mm
20/12:00am SSE 15-19 kts 21.6°c 1014.8 hPa 74% 0.0mm